Weather in Lugovskoy

Russia / Sverdlovsk Oblast     56°57′32″N   64°31′36″E
temp.,
°C
wind,
m/s
gust,
m/s
humid.,
%
clouds,
%
prec.,
mm/h
press.,
hPa
HPBL,
m
25 june, sat
sat2523:00+15ssw1181100 0.0 100610
02:00+13sw24823 0.0 100771
05:00+12wsw25810 0.0 100592
08:00+18w35612 0.0 1004370
11:00+22w35463 0.0 10021635
14:00+23wnw5745100 0.0 10012402
17:00+21wnw36597 0.0 10001108
20:00+17wnw387669 0.1 1000325
26 june, sun
sun2623:00+13nnw238847 0.1 100049
02:00+10wnw22955 0.0 100030
05:00+9nw4109357 0.0 1000422
08:00+11nw577097 0.1 10011109
11:00+10nw4674100 0.1 1002817
14:00+10wnw4676100 0.1 10031054
17:00+10nw4881100 0.1 1003874
20:00+8nw4888100 0.1 1004930
27 june, mon
mon2723:00+8nw4993100 0.4 1004763
02:00+7nw4995100 0.1 1005771
05:00+7wnw41095100 0.1 1006667
08:00+8wnw5989100 0.0 1007657
11:00+9wnw5884100 0.0 1007670
14:00+14wnw4665100 0.0 10071236
17:00+15w3664100 0.1 1006934
20:00+12sw2381100 0.1 100468
28 june, tue
tue2823:00+10w2396100 0.5 1003104
02:00+10ne1398100 0.2 1001108
05:00+9nnw3799100 1.6 1002412
08:00+8nw4898100 0.7 1003522
11:00+9nw3794100 1.0 1004583
14:00+8nw4896100 0.8 1005610
17:00+8wnw4896100 1.0 1005598
20:00+7nw4998100 0.9 1005478
29 june, wed
wed2923:00+8nnw41197100 5.4 1004748
02:00+7nw51196100 2.0 1004620
05:00+5nw4895100 2.3 1004868
08:00+6wnw3896100 0.1 1003521
11:00+8nnw51097100 0.4 1002925
14:00+7nnw61296100 0.3 1004854
17:00+9n51489100 0.4 1005946
20:00+10wnw279359 0.1 1005248